Location: ?????????
(38.5999°N, 22.7695°E)
Time: 08:49:37
(UTC+00:00)

Cosmos 2154 Rocket - Pass Details

Date: 15 August 2024
Orbit: 964 x 997 km, 82.9° (Epoch: 07 September)

Event Time Altitude Azimuth Distance (km) Brightness Sun altitude
Rises 02:50:09 0° 355° (N) 3,672 7.3 -10.4°
Reaches altitude 10° 02:52:42 10° 358° (N) 2,718 6.7 -9.9°
Maximum altitude 02:58:53 69° 82° (E) 1,031 4.4 -8.9°
Drops below altitude 10° 03:05:01 10° 165° (SSE) 2,693 6.2 -7.8°
Sets 03:07:31 0° 168° (SSE) 3,636 6.9 -7.3°
